Regional Weather Roundup
Issued by NWS

Home | Current Version | Previous Version | Graphics & Text | Print | Product List | Glossary On
Versions: 1 2 3 4 5 6 7 8 9 10 11 12 13 14 15 16 17 18 19 20 21 22 23 24 25 26 27 28 29 30 31 32 33 34 35 36 37 38 39 40 41 42 43 44 45 46 47 48 49 50
000
ASUS45 KPSR 010810
RWRAZ

ARIZONA REGIONAL HOURLY WEATHER ROUNDUP
NATIONAL WEATHER SERVICE PHOENIX AZ
100 AM MST SUN FEB 01 2015

NOTE: FAIR INDICATES FEW OR NO CLOUDS BELOW 12,000 FEET WITH NO
SIGNIFICANT WEATHER AND/OR OBSTRUCTIONS TO VISIBILITY.

AZZ001>003-036-010900-
NORTHWEST ARIZONA

CITY           SKY/WX    TMP DP  RH WIND       PRES   REMARKS
BULLHEAD CITY  CLEAR     61  37  41 N17       30.00F
KINGMAN        CLEAR     40  36  86 E5        30.05R
$$

AZZ004>008-015-016-018-010900-
NORTH CENTRAL ARIZONA

CITY           SKY/WX    TMP DP  RH WIND       PRES   REMARKS
GRAND CANYON   CLEAR     25  23  92 CALM      30.09R
PRESCOTT       CLEAR     39  36  89 W6        30.05R WCI  35
FLAGSTAFF      CLEAR     33  28  81 E8        30.05S WCI  26
PAYSON         CLEAR     41  36  81 N3        30.03S
$$

AZZ009>014-017-010900-
NORTHEAST ARIZONA

CITY           SKY/WX    TMP DP  RH WIND       PRES   REMARKS
WINSLOW        CLEAR     37  35  92 NW8       30.06R WCI  31
SAINT JOHNS    CLOUDY    41  40  96 NW9       30.01R
WINDOW ROCK    CLOUDY    34  28  79 CALM      30.03S
SHOW LOW       CLOUDY    36  36 100 N12       30.05S WCI  27
$$

AZZ023-010900-
GREATER PHOENIX AREA

CITY           SKY/WX    TMP DP  RH WIND       PRES   REMARKS
PHOENIX        PTCLDY    53  51  93 CALM      29.96S
BUCKEYE          N/A     48  48 100 N5        29.99R
LUKE AFB       CLEAR     51  50  97 W1        29.96S
DEER VALLEY    CLEAR     49  48  97 CALM      29.96S FOG
SCOTTSDALE     CLEAR     51  48  89 CALM      29.98R
MESA-GATEWAY     N/A     46  46 100 SW5       30.00R FOG
$$

AZZ027-028-010900-
SOUTHWEST MARICOPA COUNTY AND PINAL COUNTY

CITY           SKY/WX    TMP DP  RH WIND       PRES   REMARKS
CASA GRANDE    CLOUDY    52  48  87 CALM      29.99R
GILA BEND      FAIR      49  49 100 S2        29.98S
$$

AZZ503-504-507>509-010900-
SOUTHEAST ARIZONA

CITY           SKY/WX    TMP DP  RH WIND       PRES   REMARKS
TUCSON         CLOUDY    53  50  89 CALM      30.00R
DAVIS-MONTHAN  DRIZZLE   50  50 100 SE1       29.98R
NOGALES        PTCLDY    41  38  89 NE5       29.98S
SIERRA VISTA   PTCLDY    42  39  89 SW8       29.99S
DOUGLAS        CLEAR     41  40  96 CALM      29.99S
SAFFORD        LGT RAIN  48  47  96 W3        29.97R FOG
$$

AZZ020-021-025-026-031-010900-
SOUTHWEST ARIZONA

CITY           SKY/WX    TMP DP  RH WIND       PRES   REMARKS
YUMA           CLEAR     56  48  74 CALM      29.97R
$$

CAZ031-033-041-043-047-048-061-010900-
SOUTHERN CALIFORNIA

CITY           SKY/WX    TMP DP  RH WIND       PRES   REMARKS
DOWNTOWN L.A.  CLEAR     57  52  83 CALM      30.00R
L.A. AIRPORT   CLEAR     57  54  89 CALM      30.00R
SAN DIEGO      CLEAR     58  51  78 CALM      30.01R
BURBANK        CLEAR     54  44  69 CALM      30.00S
ONTARIO        CLEAR     55  45  68 NW8       30.00R
RIVERSIDE      CLEAR     56  42  59 S3        30.00R
PALM SPRINGS   CLEAR     62  41  46 VRB3      30.00F
EL CENTRO NAS  CLEAR     54  43  66 SW9       29.97R
IMPERIAL       CLEAR     52  43  71 SW6       29.96S
BLYTHE         CLEAR     54  50  86 W5        29.97S
NEEDLES        CLEAR     59  41  51 N8        30.00R
$$

NVZ020-UTZ003-010900-
SOUTHERN NEVADA-UTAH

CITY           SKY/WX    TMP DP  RH WIND       PRES   REMARKS
LAS VEGAS      CLEAR     51  40  65 SW7       30.03S
SALT LAKE CITY CLEAR     31  28  89 S7        30.18R WCI  24
$$

NMZ009-TXZ055-010900-
NEW MEXICO-WEST TEXAS

CITY           SKY/WX    TMP DP  RH WIND       PRES   REMARKS
ALBUQUERQUE    CLOUDY    39  32  76 NW9       29.99R WCI  33
EL PASO        MOCLDY    49  42  77 CALM      29.93R
$$


........................KEY........................
SKY/WX - SKY CONDITION/WEATHER
TMP    - TEMPERATURE IN FAHRENHEIT
DP     - DEW POINT IN FAHRENHEIT
RH     - RELATIVE HUMIDITY IN PERCENT
WIND   - DIRECTION AND SPEED IN MILES PER HOUR (MPH)
VRB    - VARIABLE WIND DIRECTION
PRES   - MEAN SEA LEVEL PRESSURE IN INCHES OF MERCURY
         F - FALLING PRESSURE   R - RISING PRESSURE
         S - STEADY PRESSURE
VSB    - VISIBILITY IN MILES
HX     - HEAT INDEX IN FAHRENHEIT
WCI    - WIND CHILL INDEX IN FAHRENHEIT
TC     - TEMPERATURE IN CELSIUS WHICH IS ALSO KNOWN AS
         TEMPERATURE IN CENTIGRADE
AFB    - AIR FORCE BASE
         LUKE AFB IS LUKE AIR FORCE BASE
         DAVIS-MONTHAN IS DAVIS-MONTHAN AIR FORCE BASE
NAS    - NAVAL AIR STATION
         EL CENTRO NAS IS EL CENTRO NAVAL AIR STATION
N/A    - NOT AVAILABLE



USA.gov is the U.S. government's official web portal to all federal, state and local government web resources and services.